Change the Weather History Date:

Tuesday, February 18, 2014

  Actual Average Record
Temperature  
Mean Temperature 35 °F 28 °F  
Max Temperature 50 °F 40 °F 66 °F (1983)
Min Temperature 20 °F 16 °F -23 °F (2006)
Degree Days  
Heating Degree Days 30 37  
Month to date heating degree days 842 694  
Since 1 July heating degree days 5187 4850  
Cooling Degree Days 0 0  
Month to date cooling degree days 0 0  
Year to date cooling degree days 0 0  
Moisture  
Dew Point 18 °F    
Average Humidity 55    
Maximum Humidity 84    
Minimum Humidity 26    
Precipitation  
Precipitation 0.00 in 0.02 in 0.36 in (1971)
Month to date precipitation 0.15 0.23  
Year to date precipitation 0.35 0.53  
Snow  
Snow 0.00 in 0.20 in 4.60 in (1971)
Month to date snowfall 3.5 3.2  
Since 1 July snowfall 40.1 20.8  
Snow Depth 0.00 in    
Sea Level Pressure  
Sea Level Pressure 29.80 in    
Wind  
Wind Speed 16 mph (NW)    
Max Wind Speed 39 mph    
Max Gust Speed 51 mph    
Visibility 10 miles    
Events      
T = Trace of Precipitation, MM = Missing Value Source: NWS Daily Summary

Daily Weather History Graph

Daily Weather History Graph

Search for Another Location

Airport or City:

Trip Planner

Search our weather history database for the weather conditions in past years. The results will help you decide how hot, cold, wet, or windy it might be!

Date:

Astronomy

Feb. 18, 2014 Rise Set
Actual Time 6:46 AM MST 5:26 PM MST
Civil Twilight 6:17 AM MST 5:55 PM MST
Nautical Twilight 5:43 AM MST 6:29 PM MST
Astronomical Twilight 5:10 AM MST 7:02 PM MST
Moon 9:31 PM MST (2/18) 8:11 AM MST (2/18)
Length of Visible Light 11h 38m
Length of Day
10h 39m
Waning Gibbous, 87% of the Moon is Illuminated
Feb 18
Waning Gibbous
Feb 22
Last Quarter
Mar 1
New
Mar 8
First Quarter
Mar 16
Full

Hourly Weather History & Observations

Time (MST) Temp. Windchill Dew Point Humidity Pressure Visibility Wind Dir Wind Speed Gust Speed Precip Events Conditions
12:52 AM 46.0 °F 39.6 °F 15.1 °F 29% 29.58 in 10.0 mi West 15.0 mph - N/A   Clear
1:52 AM 44.1 °F 38.1 °F 15.1 °F 31% 29.60 in 10.0 mi WNW 11.5 mph - N/A   Clear
2:52 AM 42.1 °F 35.2 °F 15.1 °F 34% 29.57 in 10.0 mi West 12.7 mph - N/A   Clear
3:52 AM 43.0 °F 36.8 °F 15.1 °F 32% 29.57 in 10.0 mi West 11.5 mph - N/A   Clear
4:52 AM 42.1 °F 35.2 °F 15.1 °F 34% 29.59 in 10.0 mi WNW 12.7 mph - N/A   Scattered Clouds
5:52 AM 44.1 °F 33.5 °F 21.0 °F 40% 29.63 in 10.0 mi NNW 33.4 mph 44.9 mph N/A   Mostly Cloudy
6:52 AM 39.9 °F 28.4 °F 25.0 °F 55% 29.72 in 10.0 mi NNW 29.9 mph 39.1 mph N/A   Clear
7:52 AM 39.9 °F 30.0 °F 25.0 °F 55% 29.74 in 10.0 mi WNW 21.9 mph - N/A   Scattered Clouds
8:52 AM 42.1 °F 31.1 °F 24.1 °F 49% 29.77 in 10.0 mi NW 31.1 mph 40.3 mph N/A   Partly Cloudy
9:52 AM 46.0 °F 36.7 °F 19.0 °F 34% 29.79 in 10.0 mi NNW 29.9 mph 39.1 mph N/A   Clear
10:52 AM 48.0 °F - 17.1 °F 29% 29.82 in 10.0 mi NW 26.5 mph 38.0 mph N/A   Clear
11:52 AM 48.0 °F - 16.0 °F 28% 29.83 in 10.0 mi NW 29.9 mph 39.1 mph N/A   Clear
12:52 PM 46.9 °F - 16.0 °F 29% 29.85 in 10.0 mi NNW 25.3 mph 33.4 mph N/A   Mostly Cloudy
1:52 PM 46.9 °F - 19.0 °F 33% 29.86 in 10.0 mi NNW 24.2 mph 35.7 mph N/A   Scattered Clouds
2:52 PM 45.0 °F 37.4 °F 18.0 °F 34% 29.88 in 10.0 mi NNW 18.4 mph 28.8 mph N/A   Scattered Clouds
3:52 PM 45.0 °F 38.2 °F 19.0 °F 36% 29.91 in 10.0 mi NNW 15.0 mph - N/A   Scattered Clouds
4:52 PM 39.9 °F 31.8 °F 19.9 °F 45% 29.94 in 10.0 mi North 15.0 mph - N/A   Clear
5:52 PM 33.1 °F 24.4 °F 19.9 °F 59% 29.96 in 10.0 mi NNW 11.5 mph - N/A   Clear
6:52 PM 27.0 °F - 18.0 °F 69% 30.00 in 10.0 mi Calm Calm - N/A   Clear
7:52 PM 27.0 °F 21.6 °F 18.0 °F 69% 29.99 in 10.0 mi SSW 4.6 mph - N/A   Clear
8:52 PM 21.9 °F 17.2 °F 17.1 °F 82% 29.98 in 10.0 mi NW 3.5 mph - N/A   Clear
9:52 PM 27.0 °F - 18.0 °F 69% 29.94 in 10.0 mi Calm Calm - N/A   Clear
10:52 PM 25.0 °F - 17.1 °F 72% 29.90 in 10.0 mi Calm Calm - N/A   Clear
11:52 PM 25.0 °F 19.3 °F 17.1 °F 72% 29.86 in 10.0 mi East 4.6 mph - N/A   Clear